Time,TemperatureF,DewpointF,PressureIn,WindDirection,WindDirectionDegrees,WindSpeedMPH,WindSpeedGustMPH,Humidity,HourlyPrecipIn,Conditions,Clouds,dailyrainin,SoftwareType,DateUTC
2013-05-15 00:02:00,47.0,-99.9,-100.00,North,-999,-999.0,-999.0,-999,0.00,,,-99.99,,2013-05-15 07:02:00,
2013-05-15 00:11:00,47.0,-99.9,-100.00,North,-999,-999.0,-999.0,-999,0.00,,,-99.99,,2013-05-15 07:11:00,
2013-05-15 00:22:00,47.0,-99.9,-100.00,North,-999,-999.0,-999.0,-999,0.00,,,-99.99,,2013-05-15 07:22:00,
2013-05-15 00:30:00,47.0,-99.9,-100.00,North,-999,-999.0,-999.0,-999,0.00,,,0.00,,2013-05-15 07:30:00,
2013-05-15 01:02:00,47.0,-99.9,-100.00,North,-999,-999.0,-999.0,-999,0.00,,,0.00,,2013-05-15 08:02:00,
2013-05-15 01:12:00,47.0,-99.9,-100.00,North,-999,-999.0,-999.0,-999,0.00,,,0.00,,2013-05-15 08:12:00,
2013-05-15 01:22:00,47.0,-99.9,-100.00,North,-999,-999.0,-999.0,-999,0.00,,,0.00,,2013-05-15 08:22:00,
2013-05-15 01:30:00,46.0,-99.9,-100.00,North,-999,-999.0,-999.0,-999,0.00,,,0.00,,2013-05-15 08:30:00,
2013-05-15 02:01:00,46.0,-99.9,-100.00,North,-999,-999.0,-999.0,-999,0.00,,,0.00,,2013-05-15 09:01:00,
2013-05-15 02:12:00,46.0,-99.9,-100.00,North,-999,-999.0,-999.0,-999,0.00,,,0.00,,2013-05-15 09:12:00,
2013-05-15 02:22:00,46.0,-99.9,-100.00,North,-999,-999.0,-999.0,-999,0.00,,,0.00,,2013-05-15 09:22:00,
2013-05-15 02:30:00,45.0,-99.9,-100.00,North,-999,-999.0,-999.0,-999,0.00,,,0.00,,2013-05-15 09:30:00,
2013-05-15 03:03:00,45.0,-99.9,-100.00,North,-999,-999.0,-999.0,-999,0.00,,,0.00,,2013-05-15 10:03:00,
2013-05-15 03:13:00,45.0,-99.9,-100.00,North,-999,-999.0,-999.0,-999,0.00,,,0.00,,2013-05-15 10:13:00,
2013-05-15 03:23:00,45.0,-99.9,-100.00,North,-999,-999.0,-999.0,-999,0.00,,,0.00,,2013-05-15 10:23:00,
2013-05-15 03:30:00,43.0,-99.9,-100.00,North,-999,-999.0,-999.0,-999,0.00,,,0.00,,2013-05-15 10:30:00,
2013-05-15 04:17:00,43.0,-99.9,-100.00,North,-999,-999.0,-999.0,-999,0.00,,,0.00,,2013-05-15 11:17:00,
2013-05-15 04:29:00,43.0,-99.9,-100.00,North,-999,-999.0,-999.0,-999,0.00,,,0.00,,2013-05-15 11:29:00,
2013-05-15 05:30:00,43.0,-99.9,-100.00,North,-999,-999.0,-999.0,-999,0.00,,,0.00,,2013-05-15 12:30:00,
2013-05-15 06:14:00,43.0,-99.9,-100.00,North,-999,-999.0,-999.0,-999,0.00,,,0.00,,2013-05-15 13:14:00,
2013-05-15 06:29:00,43.0,-99.9,-100.00,North,-999,-999.0,-999.0,-999,0.00,,,0.00,,2013-05-15 13:29:00,
2013-05-15 06:30:00,44.0,-99.9,-100.00,North,-999,-999.0,-999.0,-999,0.00,,,0.00,,2013-05-15 13:30:00,
2013-05-15 07:11:00,44.0,-99.9,-100.00,North,-999,-999.0,-999.0,-999,0.00,,,0.00,,2013-05-15 14:11:00,
2013-05-15 07:30:00,47.0,-99.9,-100.00,North,-999,-999.0,-999.0,-999,0.00,,,0.00,,2013-05-15 14:30:00,
2013-05-15 08:12:00,47.0,-99.9,-100.00,North,-999,-999.0,-999.0,-999,0.00,,,0.00,,2013-05-15 15:12:00,
2013-05-15 08:30:00,54.0,-99.9,-100.00,North,-999,-999.0,-999.0,-999,0.00,,,0.00,,2013-05-15 15:30:00,
2013-05-15 09:11:00,54.0,-99.9,-100.00,North,-999,-999.0,-999.0,-999,0.00,,,0.00,,2013-05-15 16:11:00,
2013-05-15 09:25:00,54.0,-99.9,-100.00,North,-999,-999.0,-999.0,-999,0.00,,,0.00,,2013-05-15 16:25:00,
2013-05-15 09:30:00,56.0,-99.9,-100.00,North,-999,-999.0,-999.0,-999,0.00,,,0.00,,2013-05-15 16:30:00,
2013-05-15 10:16:00,56.0,-99.9,-100.00,North,-999,-999.0,-999.0,-999,0.00,,,0.00,,2013-05-15 17:16:00,
2013-05-15 10:22:00,56.0,-99.9,-100.00,North,-999,-999.0,-999.0,-999,0.00,,,0.00,,2013-05-15 17:22:00,
2013-05-15 11:11:00,60.0,-99.9,-100.00,North,-999,-999.0,-999.0,-999,0.00,,,0.00,,2013-05-15 18:11:00,
2013-05-15 11:30:00,56.0,-99.9,-100.00,North,-999,-999.0,-999.0,-999,0.00,,,0.00,,2013-05-15 18:30:00,
2013-05-15 12:11:00,56.0,-99.9,-100.00,North,-999,-999.0,-999.0,-999,0.00,,,0.00,,2013-05-15 19:11:00,
2013-05-15 12:17:00,56.0,-99.9,-100.00,North,-999,-999.0,-999.0,-999,0.00,,,0.00,,2013-05-15 19:17:00,
2013-05-15 12:30:00,55.0,-99.9,-100.00,North,-999,-999.0,-999.0,-999,0.00,,,0.00,,2013-05-15 19:30:00,
2013-05-15 13:12:00,55.0,-99.9,-100.00,North,-999,-999.0,-999.0,-999,0.00,,,0.00,,2013-05-15 20:12:00,
2013-05-15 13:22:00,55.0,-99.9,-100.00,North,-999,-999.0,-999.0,-999,0.00,,,0.00,,2013-05-15 20:22:00,
2013-05-15 13:30:00,55.0,-99.9,-100.00,North,-999,-999.0,-999.0,-999,0.01,,,0.01,,2013-05-15 20:30:00,
2013-05-15 14:11:00,55.0,-99.9,-100.00,North,-999,-999.0,-999.0,-999,0.01,,,0.01,,2013-05-15 21:11:00,
2013-05-15 14:21:00,55.0,-99.9,-100.00,North,-999,-999.0,-999.0,-999,0.01,,,0.01,,2013-05-15 21:21:00,
2013-05-15 14:30:00,56.0,-99.9,-100.00,North,-999,-999.0,-999.0,-999,0.02,,,0.03,,2013-05-15 21:30:00,
2013-05-15 15:13:00,56.0,-99.9,-100.00,North,-999,-999.0,-999.0,-999,0.02,,,0.03,,2013-05-15 22:13:00,
2013-05-15 15:20:00,56.0,-99.9,-100.00,North,-999,-999.0,-999.0,-999,0.02,,,0.03,,2013-05-15 22:20:00,
2013-05-15 15:30:00,61.0,-99.9,-100.00,North,-999,-999.0,-999.0,-999,0.00,,,0.03,,2013-05-15 22:30:00,
2013-05-15 16:12:00,61.0,-99.9,-100.00,North,-999,-999.0,-999.0,-999,0.00,,,0.03,,2013-05-15 23:12:00,
2013-05-15 16:18:00,61.0,-99.9,-100.00,North,-999,-999.0,-999.0,-999,0.00,,,0.03,,2013-05-15 23:18:00,
2013-05-15 16:30:00,58.0,-99.9,-100.00,North,-999,-999.0,-999.0,-999,0.00,,,0.03,,2013-05-15 23:30:00,
2013-05-15 17:12:00,58.0,-99.9,-100.00,North,-999,-999.0,-999.0,-999,0.00,,,0.03,,2013-05-16 00:12:00,
2013-05-15 17:20:00,58.0,-99.9,-100.00,North,-999,-999.0,-999.0,-999,0.00,,,0.03,,2013-05-16 00:20:00,
2013-05-15 17:28:00,58.0,-99.9,-100.00,North,-999,-999.0,-999.0,-999,0.00,,,0.03,,2013-05-16 00:28:00,
2013-05-15 17:30:00,55.0,-99.9,-100.00,North,-999,-999.0,-999.0,-999,0.01,,,0.04,,2013-05-16 00:30:00,
2013-05-15 18:10:00,55.0,-99.9,-100.00,North,-999,-999.0,-999.0,-999,0.01,,,0.04,,2013-05-16 01:10:00,
2013-05-15 18:20:00,55.0,-99.9,-100.00,North,-999,-999.0,-999.0,-999,0.01,,,0.04,,2013-05-16 01:20:00,
2013-05-15 18:30:00,53.0,-99.9,-100.00,North,-999,-999.0,-999.0,-999,0.04,,,0.08,,2013-05-16 01:30:00,
2013-05-15 19:10:00,53.0,-99.9,-100.00,North,-999,-999.0,-999.0,-999,0.04,,,0.08,,2013-05-16 02:10:00,
2013-05-15 19:18:00,53.0,-99.9,-100.00,North,-999,-999.0,-999.0,-999,0.04,,,0.08,,2013-05-16 02:18:00,
2013-05-15 20:18:00,52.0,-99.9,-100.00,North,-999,-999.0,-999.0,-999,0.02,,,0.10,,2013-05-16 03:18:00,
2013-05-15 20:28:00,52.0,-99.9,-100.00,North,-999,-999.0,-999.0,-999,0.02,,,0.10,,2013-05-16 03:28:00,
2013-05-15 20:30:00,51.0,-99.9,-100.00,North,-999,-999.0,-999.0,-999,0.03,,,-99.99,,2013-05-16 03:30:00,
2013-05-15 21:03:00,51.0,-99.9,-100.00,North,-999,-999.0,-999.0,-999,0.03,,,-99.99,,2013-05-16 04:03:00,
2013-05-15 21:13:00,51.0,-99.9,-100.00,North,-999,-999.0,-999.0,-999,0.03,,,-99.99,,2013-05-16 04:13:00,
2013-05-15 21:23:00,51.0,-99.9,-100.00,North,-999,-999.0,-999.0,-999,0.03,,,-99.99,,2013-05-16 04:23:00,
2013-05-15 21:30:00,51.0,-99.9,-100.00,North,-999,-999.0,-999.0,-999,0.05,,,0.18,,2013-05-16 04:30:00,
2013-05-15 22:03:00,51.0,-99.9,-100.00,North,-999,-999.0,-999.0,-999,0.05,,,0.18,,2013-05-16 05:03:00,
2013-05-15 22:12:00,51.0,-99.9,-100.00,North,-999,-999.0,-999.0,-999,0.05,,,0.18,,2013-05-16 05:12:00,
2013-05-15 22:22:00,51.0,-99.9,-100.00,North,-999,-999.0,-999.0,-999,0.05,,,0.18,,2013-05-16 05:22:00,
2013-05-15 22:30:00,51.0,-99.9,-100.00,North,-999,-999.0,-999.0,-999,0.05,,,0.23,,2013-05-16 05:30:00,
2013-05-15 23:02:00,51.0,-99.9,-100.00,North,-999,-999.0,-999.0,-999,0.05,,,0.23,,2013-05-16 06:02:00,
2013-05-15 23:13:00,51.0,-99.9,-100.00,North,-999,-999.0,-999.0,-999,0.05,,,0.23,,2013-05-16 06:13:00,
2013-05-15 23:23:00,51.0,-99.9,-100.00,North,-999,-999.0,-999.0,-999,0.05,,,0.23,,2013-05-16 06:23:00,
2013-05-15 23:30:00,51.0,-99.9,-100.00,North,-999,-999.0,-999.0,-999,0.00,,,0.23,,2013-05-16 06:30:00,